Flag for Germany Weather past 2 weeks in Giessen, Hesse, Germany

Now
57 °F

Clear.


Feels Like: 57 °F
Forecast: 46 / 63 °F
Wind: 2 mph from Northwest

Location: Giessen

Current Time: Sep 3, 2015 at 9:33:29 PM

Latest Report: Sep 3, 2015 at 9:00 PM


Visibility: 44 mi

Pressure: 29.94 "Hg

Humidity: 69%

Dew point: 47 °F

Location of GiessenLocation

Historic Weather in Giessen — Graph

°F

Giessen temperature yesterday

Maximum temperature yesterday: 67 °F (at 4:00 PM)
Minimum temperature yesterday: 48 °F (at 7:00 AM)
Average temperature yesterday: 57 °F

Past Weeks' High & Low Weather Summary

 TemperatureHumidityPressure
High90 °F (Aug 31, 4:00 PM)100% (Aug 21, 8:00 AM)30.30 "Hg (Aug 21, 8:00 AM)
Low48 °F (Sep 2, 7:00 AM)24% (Aug 31, 3:00 PM)29.65 "Hg (Aug 24, 5:00 PM)
Average66 °F72%29.99 "Hg
* Reported Aug 19 8:00 PM — Sep 3 8:00 PM, Giessen, Weather by CustomWeather, © 2015

Note: Actual official high and low records may vary slightly from our data, if they occured in-between our weather recording intervals... More about our weather records

Advertising

Giessen weather history for previous 24 hours

 ConditionsComfort  
Time TempWeatherWind HumidityBarometerVisibility
8:00 PM
Thu, Sep 3
60 °FSunny.3 mph62%29.92 "Hg43 mi
7:00 PM65 °FPassing clouds.5 mph48%29.91 "Hg34 mi
6:00 PM67 °FPassing clouds.5 mph48%29.90 "Hg22 mi
5:00 PM68 °FPartly sunny.6 mph49%29.90 "Hg31 mi
4:00 PM67 °FScattered clouds.5 mph50%29.91 "Hg25 mi
3:00 PM67 °FSunny.6 mph52%29.92 "Hg25 mi
2:00 PM65 °FScattered clouds.6 mph56%29.93 "Hg22 mi
1:00 PM65 °FPassing clouds.5 mph55%29.94 "Hg18 mi
12:00 PM63 °FPartly sunny.2 mph63%29.95 "Hg14 mi
11:00 AM60 °FSunny.2 mph73%29.97 "Hg10 mi
10:00 AM57 °FOvercast.1 mph84%29.97 "Hg10 mi
9:00 AM53 °FLow clouds.2 mph90%29.97 "Hg7 mi
8:00 AM49 °FSunny.1 mph96%29.98 "Hg8 mi
7:00 AM48 °FSunny.1 mph99%29.97 "Hg10 mi
5:00 AM49 °FClear.1 mph97%29.98 "Hg8 mi
4:00 AM51 °FPassing clouds.5 mph97%29.98 "Hg10 mi
3:00 AM51 °FPassing clouds.1 mph99%29.98 "Hg4 mi
2:00 AM54 °FClear.1 mph95%29.98 "Hg13 mi
1:00 AM56 °FOvercast.1 mph90%29.98 "Hg19 mi
11:00 PM
Wed, Sep 2
56 °FOvercast.1 mph88%29.99 "Hg25 mi
10:00 PM57 °FOvercast.2 mph86%30.00 "Hg28 mi
9:00 PM59 °FOvercast.1 mph82%30.00 "Hg31 mi
Weather by CustomWeather, © 2015

See weather overviewHow to use our weather pages